{"data":{"norad_id":60112,"epoch":"2026-05-25T03:16:57.879264Z","epoch_age_seconds":66666,"freshness":"FRESH","line1":"1 60112U 24117X   26145.13678101  .00001257  00000+0  54563-4 0  9991","line2":"2 60112  53.1607  41.8339 0001130  85.2357 274.8772 15.30196348108597","mean_motion":15.30196348,"eccentricity":0.000113,"inclination_deg":53.1607,"raan_deg":41.8339,"arg_perigee_deg":85.2357,"mean_anomaly_deg":274.8772,"bstar":5.4563e-5,"rev_number":10859,"period_min":94.105570300315,"perigee_km":474.45154363871,"apogee_km":476.00040367076,"semimajor_km":6853.3629736547,"source":"CELESTRAK","updated_at":"2026-05-25T13:38:19.164645Z"}}